This demonstration page uses our WeatherBlox Daily Observations layout. Learn more.

Left ArrowRight Arrow

Hourly Observations for September 20, 2018

Temp ( °F °C ) Dew Point ( °F °C ) Humidity (%) Winds ( mph kmh ) Pressure ( in mb ) Visibility ( mi km ) Precip ( " mm )
12:54 am 00:54 Partly Cloudy 77 25 66 18.9 69 69 S 10 17 29.77 1008 10 16 N/A
1:54 am 01:54 Mostly Clear 76 24.4 66 18.9 72 72 S 12 19 29.76 1008 10 16 N/A
2:54 am 02:54 Clear 75 23.9 65 18.3 71 71 S 12 19 29.75 1007 10 16 N/A
3:54 am 03:54 Clear 74 23.3 65 18.3 74 74 S 10 17 29.74 1007 10 16 N/A
4:54 am 04:54 Clear 74 23.3 66 18.9 76 76 S 14 22 29.73 1007 10 16 N/A
5:54 am 05:54 Clear 74 23.3 66 18.9 76 76 S 12 19 29.73 1007 10 16 N/A
6:54 am 06:54 Mostly Cloudy 74 23.3 66 18.9 76 76 S 12 19 29.72 1007 10 16 N/A
7:54 am 07:54 Sunny 74 23.3 66 18.9 76 76 S 14 22 29.72 1006 10 16 N/A
8:54 am 08:54 Sunny 79 26.1 66 18.9 65 65 S 21 33 29.70 1006 10 16 N/A
9:54 am 09:54 Sunny 83 28.3 66 18.9 57 57 SSW 18 30 29.70 1006 10 16 N/A
10:54 am 10:54 Sunny 86 30 67 19.4 53 53 SSW 21 33 29.70 1006 10 16 N/A
11:54 am 11:54 Sunny 90 32.2 67 19.4 47 47 SSW 20 31 29.67 1005 10 16 N/A
12:54 pm 12:54 Sunny 92 33.3 65 18.3 41 41 SSW 30 48 29.65 1004 10 16 N/A
1:54 pm 13:54 Sunny 94 34.4 63 17.2 36 36 SSW 23 37 29.62 1003 10 16 N/A
2:54 pm 14:54 Sunny 94 34.4 65 18.3 38 38 SSW 26 43 29.59 1002 10 16 N/A
3:54 pm 15:54 Sunny 95 35 63 17.2 35 35 SSW 25 41 29.59 1002 10 16 N/A
4:54 pm 16:54 Mostly Sunny 95 35 62 16.7 34 34 SSW 24 39 29.57 1001 10 16 N/A
5:54 pm 17:54 Mostly Cloudy with Nearby Thunderstorms 91 32.8 63 17.2 39 39 SSW 18 30 29.57 1001 10 16 N/A
6:10 pm 18:10 Mostly Cloudy with Nearby Thunderstorms 85 29.4 66 18.9 53 53 WNW 15 24 29.56 1001 10 16 N/A
6:38 pm 18:38 Cloudy with Thunderstorms 81 27.2 67 19.4 62 62 WNW 14 22 29.62 1003 10 16 N/A
6:54 pm 18:54 Cloudy with Thunderstorms 76 24.4 70 21.1 82 82 WNW 14 22 29.64 1004 10 16 N/A
7:15 pm 19:15 Cloudy with Nearby Thunderstorms 75 23.9 70 21.1 84 84 W 12 19 29.65 1004 10 16 N/A
7:44 pm 19:44 Cloudy with Strong Thunderstorms 69 20.6 65 18.3 87 87 WNW 24 39 29.71 1006 3 4 0.05 1.27
7:54 pm 19:54 Cloudy with Thunderstorms 68 20 65 18.3 90 90 NW 15 24 29.70 1006 3 5 0.14 3.56
8:06 pm 20:06 Cloudy with Strong Thunderstorms 68 20 66 18.9 93 93 WSW 24 39 29.80 1009 2 3 0.03 0.76
8:09 pm 20:09 Cloudy with Strong Thunderstorms 67 19.4 66 18.9 97 97 W 16 26 29.80 1009 1 2 0.14 3.56
8:18 pm 20:18 Cloudy with Strong Thunderstorms 67 19.4 65 18.3 93 93 WNW 13 20 29.77 1008 2 3 0.34 8.64
8:26 pm 20:26 Cloudy with Thunderstorms 68 20 65 18.3 90 90 NW 13 20 29.74 1007 6 10 0.35 8.89
8:35 pm 20:35 Cloudy with Nearby Thunderstorms 68 20 65 18.3 90 90 W 9 15 29.77 1008 5 8 0.37 9.40
8:44 pm 20:44 Cloudy with Rain 68 20 65 18.3 90 90 SSW 8 13 29.77 1008 6 10 0.38 9.65
8:54 pm 20:54 Cloudy with Rain 68 20 65 18.3 90 90 SSW 14 22 29.80 1009 5 8 0.40 10.16
9:54 pm 21:54 Mostly Cloudy with Light Rain 67 19.4 65 18.3 93 93 S 7 11 29.80 1009 10 16 0.09 2.29
10:54 pm 22:54 Mostly Cloudy 67 19.4 65 18.3 93 93 NW 3 6 29.83 1010 10 16 0.01 0.25
11:02 pm 23:02 Mostly Cloudy 68 20 65 18.3 90 90 WNW 5 7 29.85 1011 10 16 N/A
11:11 pm 23:11 Mostly Cloudy 68 20 65 18.3 90 90 WNW 5 7 29.85 1011 10 16 N/A
11:19 pm 23:19 Mostly Cloudy 68 20 65 18.3 90 90 W 6 9 29.85 1011 10 16 N/A
11:39 pm 23:39 Cloudy 68 20 66 18.9 93 93 W 6 9 29.88 1012 10 16 N/A
11:54 pm 23:54 Cloudy 68 20 66 18.9 93 93 WNW 5 7 29.88 1012 10 16 N/A

Powered by AerisWeather